Weather in Kosulichi

Russia / Oryol Oblast     52°50′55″N   35°02′57″E
temp.,
°C
wind,
m/s
gust,
m/s
humid.,
%
clouds,
%
prec.,
mm/h
press.,
hPa
HPBL,
m
19 april, mon
mon1900:00+4nne3594100 0.0 1019118
03:00+3nne369629 0.0 1018121
06:00+3nne399722 0.0 1018204
09:00+6ene4688100 0.4 1018538
12:00+7ene3687100 0.5 1018512
15:00+9ne577898 0.9 1017820
18:00+8ne698498 0.6 1017745
21:00+5ne61094100 0.8 1018490
20 april, tue
tue2000:00+5ne5996100 0.0 1017416
03:00+5ne5895100 0.1 1015359
06:00+5ne4897100 0.1 1014351
09:00+7e5892100 0.6 1013619
12:00+8e5885100 0.3 1012825
15:00+10ene8974100 0.4 10101167
18:00+7ne71189100 0.0 1008653
21:00+4nne71295100 0.5 1006620
21 april, wed
wed2100:00+3n71297100 2.9 1002615
03:00+2nw71297100 4.3 1001463
06:00+2wnw71297100 0.8 1002587
09:00+3w71196100 0.8 1005856
12:00+7w71074100 0.1 10071268
15:00+8wsw8973100 0.4 10091225
18:00+7wsw5975100 0.3 1011855
21:00+5ssw3683100 0.3 101390
22 april, thu
thu2200:00+5s388698 0.0 1014199
03:00+5s4108899 0.8 1014353
06:00+4ssw489645 0.1 1015206
09:00+9ssw568235 0.1 1016508
12:00+13ssw6862100 0.8 10151387
15:00+14sw68545 2.3 10151669
18:00+13ssw486287 0.9 1016348
21:00+10s4107717 1.0 1017214
23 april, fri
fri2300:00+8ssw4109192 0.5 1017220
03:00+7s499388 0.8 1017166
06:00+6s4119380 0.0 1016236
09:00+11s7117520 0.0 1016540
12:00+15s811595 0.1 10151572
15:00+16ssw8105054 0.9 10132399
18:00+13ssw61171100 1.9 1012846
21:00+8n1195100 4.7 101494